Regional Weather Roundup
Issued by NWS

Home | Current Version | Previous Version | Graphics & Text | Print | Product List | Glossary On
Versions: 1 2 3 4 5 6 7 8 9 10 11 12 13 14 15 16 17 18 19 20 21 22 23 24 25 26 27 28 29 30 31 32 33 34 35 36 37 38 39 40 41 42 43 44 45 46 47 48 49 50
000
ASUS43 KLMK 202010
RWRKY
KENTUCKY REGIONAL WEATHER ROUNDUP
NATIONAL WEATHER SERVICE LOUISVILLE KY
400 PM EDT SUN APR 20 2014

NOTE "FAIR" INDICATES FEW OR NO CLOUDS BELOW 12,000 FEET
WITH NO SIGNIFICANT WEATHER AND/OR OBSTRUCTIONS TO VISIBILITY.

KYZ001>023-026-027-061>063-070>075-202100-
WESTERN AND SOUTH CENTRAL KENTUCKY

CITY           SKY/WX    TMP DP  RH WIND       PRES   REMARKS
PADUCAH        MOSUNNY   80  41  24 W7        30.14F
HENDERSON      CLOUDY    73  39  29 CALM      30.15F
OWENSBORO      MOSUNNY   76  35  22 VRB7      30.15F
HOPKINSVILLE   MOSUNNY   77  37  24 SW5       30.15F
BOWLING GREEN  MOSUNNY   76  39  26 W7        30.16F
GLASGOW        SUNNY     77  42  28 SW6       30.16F
$$

KYZ024-025-028>034-038-045-046-053-202100-
NORTH CENTRAL KENTUCKY

CITY           SKY/WX    TMP DP  RH WIND       PRES   REMARKS
LOUISVILLE/SDF PTSUNNY   79  41  25 VRB3      30.15F
LOUISVILLE/LOU SUNNY     79  39  23 VRB3      30.16F
FORT KNOX      MOSUNNY   77  38  24 VRB5      30.15F
$$

KYZ035>037-039>044-047>052-055>060-089>105-202100-
NORTHEAST KENTUCKY

CITY           SKY/WX    TMP DP  RH WIND       PRES   REMARKS
LEXINGTON      SUNNY     75  38  26 W5        30.18F
COVINGTON      MOSUNNY   75  35  23 CALM      30.17F
FRANKFORT      SUNNY     75  39  27 S8        30.16F
$$

KYZ054-064>069-076>088-106>120-202100-
SOUTHEAST KENTUCKY

CITY           SKY/WX    TMP DP  RH WIND       PRES   REMARKS
JACKSON        SUNNY     75  27  17 VRB3      30.18F
LONDON         SUNNY     76  37  24 VRB5      30.17F
SOMERSET       SUNNY     75  36  23 CALM      30.18F
MIDDLESBORO    SUNNY     76  41  28 NE3       30.17F
MONTICELLO     CLEAR     77  43  29 VRB5      30.18F
$$




USA.gov is the U.S. government's official web portal to all federal, state and local government web resources and services.